QPF
0.02 0.02 0.02 0.03 0.03 0.02 0.02 0.03 0.03 0.04 0.05 0.07 0.07 0.07 0.08 0.09 0.08 0.08 0.07 0.04 0.02 0.02 0.02 0.05 0.07 0.06 0.04 0.03 0.02 0.01 0.01 0.01 0.01 0.01 0.02 0.02 0.02 0.02 0.01 0.01 0.01 0.02 0.02
0.01 0.02 0.02 0.02 0.03 0.02 0.02 0.02 0.03 0.04 0.04 0.05 0.07 0.07 0.07 0.07 0.07 0.07 0.07 0.06 0.03 0.02 0.02 0.04 0.06 0.07 0.05 0.04 0.03 0.02 0.02 0.02 0.01 0.01 0.02 0.03 0.03 0.03 0.02 0.02 0.02 0.02 0.02
0.02 0.02 0.02 0.02 0.02 0.02 0.02 0.03 0.03 0.04 0.04 0.04 0.05 0.07 0.08 0.08 0.09 0.08 0.07 0.07 0.05 0.03 0.02 0.02 0.04 0.06 0.07 0.06 0.04 0.03 0.02 0.02 0.01 0.01 0.02 0.03 0.03 0.03 0.03 0.03 0.03 0.02 0.02
0.02 0.02 0.03 0.02 0.02 0.02 0.01 0.02 0.03 0.03 0.04 0.04 0.04 0.05 0.06 0.07 0.08 0.09 0.07 0.07 0.06 0.04 0.03 0.02 0.03 0.05 0.07 0.07 0.05 0.04 0.03 0.03 0.02 0.02 0.02 0.01 0.01 0.02 0.03 0.04 0.04 0.04 0.04
0.03 0.02 0.03 0.03 0.02 0.02 0.01 0.02 0.02 0.03 0.03 0.04 0.04 0.04 0.05 0.07 0.08 0.09 0.08 0.08 0.08 0.07 0.05 0.03 0.03 0.04 0.06 0.06 0.06 0.05 0.04 0.03 0.04 0.03 0.03 0.02 0.01 0.02 0.02 0.03 0.04 0.05 0.05
0.04 0.04 0.04 0.03 0.02 0.02 0.01 0.02 0.02 0.02 0.02 0.03 0.03 0.03 0.04 0.06 0.09 0.09 0.09 0.08 0.08 0.08 0.08 0.07 0.04 0.04 0.04 0.06 0.06 0.06 0.05 0.04 0.04 0.05 0.05 0.05 0.03 0.02 0.02 0.02 0.03 0.05 0.05
0.05 0.06 0.06 0.04 0.03 0.02 0.02 0.02 0.03 0.03 0.02 0.03 0.03 0.03 0.03 0.04 0.07 0.09 0.10 0.09 0.08 0.08 0.08 0.08 0.06 0.05 0.04 0.05 0.06 0.06 0.05 0.04 0.04 0.05 0.06 0.06 0.06 0.03 0.02 0.02 0.03 0.04 0.05
0.06 0.06 0.05 0.05 0.03 0.02 0.02 0.02 0.03 0.04 0.05 0.04 0.04 0.03 0.03 0.03 0.04 0.06 0.09 0.10 0.09 0.08 0.08 0.08 0.07 0.06 0.05 0.05 0.05 0.07 0.05 0.04 0.03 0.03 0.04 0.05 0.06 0.05 0.04 0.04 0.04 0.05 0.06
0.07 0.06 0.04 0.04 0.03 0.02 0.02 0.02 0.03 0.04 0.05 0.06 0.07 0.06 0.05 0.05 0.04 0.04 0.05 0.08 0.08 0.08 0.07 0.08 0.09 0.08 0.07 0.06 0.06 0.06 0.06 0.05 0.03 0.02 0.02 0.04 0.05 0.05 0.05 0.04 0.05 0.06 0.06
0.07 0.06 0.04 0.03 0.03 0.02 0.02 0.02 0.02 0.03 0.04 0.06 0.07 0.07 0.07 0.07 0.07 0.06 0.04 0.04 0.05 0.06 0.08 0.07 0.07 0.09 0.08 0.07 0.07 0.06 0.05 0.05 0.05 0.03 0.02 0.02 0.03 0.04 0.04 0.04 0.04 0.05 0.05
0.06 0.06 0.06 0.04 0.03 0.02 0.02 0.01 0.02 0.03 0.04 0.05 0.06 0.07 0.07 0.07 0.06 0.07 0.07 0.06 0.06 0.06 0.08 0.10 0.08 0.09 0.10 0.09 0.08 0.07 0.07 0.06 0.05 0.04 0.04 0.03 0.03 0.03 0.03 0.04 0.04 0.04 0.05
0.06 0.06 0.06 0.06 0.04 0.03 0.02 0.01 0.01 0.02 0.03 0.05 0.06 0.07 0.08 0.07 0.06 0.06 0.06 0.07 0.07 0.07 0.08 0.11 0.10 0.09 0.10 0.11 0.11 0.10 0.08 0.07 0.07 0.05 0.04 0.04 0.03 0.04 0.04 0.04 0.03 0.03 0.03
0.06 0.06 0.05 0.06 0.04 0.04 0.03 0.01 0.01 0.01 0.01 0.03 0.05 0.07 0.07 0.07 0.05 0.04 0.04 0.04 0.05 0.07 0.08 0.10 0.12 0.11 0.11 0.12 0.14 0.14 0.13 0.10 0.09 0.07 0.06 0.06 0.05 0.06 0.05 0.04 0.04 0.04 0.03
0.04 0.05 0.05 0.07 0.06 0.05 0.05 0.03 0.01 0.01 0.01 0.01 0.03 0.05 0.06 0.07 0.06 0.05 0.04 0.03 0.04 0.05 0.06 0.08 0.10 0.11 0.11 0.10 0.10 0.12 0.14 0.14 0.12 0.10 0.08 0.07 0.06 0.06 0.06 0.05 0.04 0.04 0.03
0.03 0.03 0.03 0.05 0.06 0.06 0.07 0.06 0.04 0.02 0.01 0.01 0.02 0.03 0.04 0.04 0.05 0.05 0.04 0.03 0.03 0.04 0.05 0.06 0.08 0.10 0.10 0.09 0.08 0.09 0.10 0.11 0.13 0.12 0.10 0.08 0.07 0.06 0.07 0.06 0.05 0.04 0.04
0.02 0.02 0.02 0.03 0.04 0.04 0.05 0.07 0.06 0.04 0.03 0.02 0.02 0.03 0.04 0.03 0.03 0.03 0.03 0.02 0.02 0.02 0.03 0.04 0.06 0.07 0.08 0.08 0.08 0.09 0.09 0.08 0.09 0.10 0.10 0.09 0.08 0.08 0.07 0.07 0.07 0.06 0.05
0.01 0.01 0.01 0.02 0.03 0.03 0.03 0.05 0.06 0.06 0.05 0.04 0.03 0.03 0.04 0.04 0.03 0.02 0.02 0.02 0.02 0.02 0.02 0.03 0.04 0.05 0.06 0.07 0.07 0.08 0.09 0.09 0.09 0.09 0.09 0.09 0.08 0.09 0.08 0.07 0.08 0.07 0.06
0.01 0.01 0.01 0.01 0.01 0.02 0.03 0.03 0.03 0.04 0.05 0.05 0.04 0.04 0.03 0.03 0.03 0.03 0.03 0.02 0.02 0.02 0.03 0.04 0.05 0.06 0.06 0.06 0.06 0.06 0.06 0.07 0.08 0.09 0.11 0.12 0.11 0.09 0.07 0.06 0.06 0.06 0.05
0.00 0.01 0.01 0.01 0.01 0.01 0.02 0.02 0.03 0.03 0.03 0.04 0.04 0.04 0.04 0.04 0.04 0.04 0.04 0.03 0.02 0.02 0.03 0.04 0.05 0.06 0.06 0.06 0.06 0.07 0.06 0.06 0.05 0.04 0.06 0.09 0.10 0.10 0.09 0.07 0.06 0.06 0.05
0.00 0.00 0.00 0.00 0.00 0.01 0.01 0.02 0.02 0.02 0.03 0.03 0.04 0.04 0.04 0.05 0.05 0.05 0.05 0.04 0.04 0.03 0.03 0.03 0.05 0.05 0.06 0.07 0.07 0.07 0.06 0.06 0.06 0.05 0.04 0.06 0.08 0.10 0.11 0.09 0.08 0.08 0.07
0.00 0.00 0.00 0.00 0.00 0.00 0.01 0.01 0.01 0.01 0.02 0.02 0.02 0.03 0.03 0.03 0.04 0.04 0.05 0.05 0.05 0.05 0.04 0.04 0.04 0.05 0.05 0.05 0.06 0.07 0.07 0.06 0.06 0.07 0.06 0.06 0.07 0.09 0.11 0.12 0.11 0.09 0.08
0.00 0.00 0.00 0.00 0.00 0.00 0.01 0.01 0.01 0.01 0.01 0.01 0.02 0.02 0.02 0.02 0.03 0.03 0.03 0.04 0.05 0.05 0.05 0.05 0.05 0.05 0.05 0.05 0.05 0.06 0.07 0.06 0.05 0.07 0.08 0.09 0.09 0.09 0.10 0.11 0.10 0.10 0.09
0.00 0.00 0.00 0.00 0.00 0.01 0.01 0.01 0.01 0.01 0.01 0.01 0.01 0.01 0.01 0.02 0.02 0.02 0.03 0.03 0.04 0.05 0.04 0.04 0.05 0.05 0.06 0.07 0.07 0.07 0.06 0.06 0.05 0.05 0.06 0.07 0.08 0.09 0.09 0.10 0.11 0.10 0.10
0.00 0.00 0.00 0.00 0.00 0.01 0.01 0.01 0.00 0.00 0.01 0.01 0.01 0.01 0.01 0.01 0.02 0.02 0.02 0.03 0.05 0.05 0.05 0.04 0.05 0.05 0.05 0.06 0.07 0.07 0.07 0.07 0.07 0.06 0.05 0.05 0.06 0.07 0.08 0.09 0.09 0.11 0.11
0.00 0.00 0.00 0.01 0.01 0.01 0.01 0.01 0.00 0.00 0.01 0.01 0.01 0.01 0.01 0.01 0.02 0.02 0.03 0.04 0.05 0.06 0.06 0.05 0.05 0.05 0.05 0.06 0.06 0.07 0.07 0.07 0.07 0.07 0.07 0.06 0.05 0.06 0.07 0.08 0.08 0.08 0.09
0.01 0.01 0.01 0.01 0.01 0.01 0.01 0.01 0.00 0.00 0.01 0.01 0.01 0.01 0.02 0.02 0.02 0.01 0.02 0.03 0.04 0.04 0.05 0.05 0.05 0.05 0.05 0.05 0.06 0.06 0.07 0.07 0.07 0.07 0.08 0.07 0.06 0.05 0.06 0.07 0.08 0.09 0.09
MSLP
1028.08 1028.58 1029.07 1029.51 1029.88 1030.16 1030.31 1030.32 1030.16 1029.85 1029.39 1028.83 1028.21 1027.56 1026.93 1026.35 1025.83 1025.35 1024.91 1024.47 1024.00 1023.50 1022.96 1022.39 1021.81 1021.24 1020.70 1020.21 1019.75 1019.30 1018.81 1018.24 1017.55 1016.73 1015.80 1014.79 1013.77 1012.82 1012.04 1011.50 1011.24 1011.27 1011.58
1028.01 1028.41 1028.80 1029.16 1029.48 1029.75 1029.93 1029.99 1029.91 1029.68 1029.29 1028.78 1028.16 1027.48 1026.78 1026.10 1025.47 1024.87 1024.32 1023.80 1023.28 1022.75 1022.21 1021.65 1021.10 1020.56 1020.07 1019.61 1019.18 1018.74 1018.27 1017.70 1017.02 1016.18 1015.22 1014.15 1013.06 1012.02 1011.13 1010.48 1010.12 1010.08 1010.36
1028.04 1028.31 1028.56 1028.80 1029.03 1029.25 1029.45 1029.57 1029.58 1029.45 1029.17 1028.72 1028.14 1027.44 1026.68 1025.89 1025.12 1024.39 1023.72 1023.09 1022.49 1021.92 1021.37 1020.83 1020.30 1019.80 1019.32 1018.89 1018.47 1018.05 1017.60 1017.05 1016.38 1015.57 1014.60 1013.53 1012.39 1011.29 1010.31 1009.54 1009.07 1008.93 1009.13
1028.13 1028.26 1028.34 1028.42 1028.54 1028.69 1028.87 1029.03 1029.14 1029.13 1028.96 1028.62 1028.09 1027.39 1026.58 1025.70 1024.81 1023.94 1023.14 1022.40 1021.73 1021.12 1020.54 1020.00 1019.48 1018.98 1018.51 1018.06 1017.64 1017.22 1016.77 1016.26 1015.63 1014.88 1013.97 1012.94 1011.82 1010.69 1009.64 1008.77 1008.17 1007.90 1007.98
1028.24 1028.22 1028.12 1028.03 1028.00 1028.05 1028.19 1028.39 1028.58 1028.68 1028.64 1028.40 1027.94 1027.28 1026.45 1025.50 1024.51 1023.54 1022.63 1021.81 1021.08 1020.42 1019.81 1019.24 1018.69 1018.15 1017.63 1017.13 1016.66 1016.20 1015.75 1015.27 1014.72 1014.06 1013.27 1012.33 1011.29 1010.19 1009.11 1008.15 1007.42 1006.99 1006.91
1028.31 1028.14 1027.88 1027.61 1027.42 1027.36 1027.44 1027.65 1027.89 1028.10 1028.17 1028.04 1027.67 1027.05 1026.23 1025.26 1024.23 1023.20 1022.22 1021.34 1020.56 1019.86 1019.21 1018.58 1017.95 1017.31 1016.67 1016.05 1015.47 1014.94 1014.46 1014.01 1013.54 1013.02 1012.39 1011.62 1010.71 1009.69 1008.63 1007.62 1006.77 1006.17 1005.91
1028.29 1028.00 1027.58 1027.15 1026.81 1026.63 1026.65 1026.84 1027.12 1027.39 1027.55 1027.52 1027.23 1026.68 1025.90 1024.95 1023.91 1022.88 1021.89 1020.99 1020.19 1019.44 1018.73 1018.00 1017.23 1016.42 1015.59 1014.77 1014.01 1013.35 1012.80 1012.36 1011.99 1011.63 1011.20 1010.65 1009.94 1009.07 1008.08 1007.07 1006.13 1005.38 1004.94
1028.14 1027.76 1027.21 1026.65 1026.18 1025.91 1025.86 1026.01 1026.30 1026.61 1026.82 1026.85 1026.64 1026.15 1025.43 1024.54 1023.55 1022.55 1021.59 1020.72 1019.91 1019.12 1018.32 1017.46 1016.50 1015.45 1014.35 1013.26 1012.26 1011.40 1010.75 1010.29 1010.00 1009.80 1009.60 1009.31 1008.84 1008.18 1007.32 1006.35 1005.38 1004.53 1003.95
1027.83 1027.38 1026.76 1026.11 1025.56 1025.21 1025.10 1025.22 1025.49 1025.80 1026.03 1026.10 1025.92 1025.49 1024.83 1024.01 1023.09 1022.17 1021.28 1020.45 1019.65 1018.83 1017.94 1016.90 1015.71 1014.38 1012.96 1011.54 1010.23 1009.13 1008.32 1007.81 1007.58 1007.53 1007.56 1007.53 1007.34 1006.91 1006.24 1005.38 1004.44 1003.55 1002.88
1027.34 1026.86 1026.21 1025.53 1024.96 1024.57 1024.43 1024.51 1024.75 1025.03 1025.25 1025.31 1025.14 1024.74 1024.13 1023.38 1022.55 1021.72 1020.91 1020.14 1019.36 1018.51 1017.51 1016.29 1014.85 1013.21 1011.44 1009.67 1008.03 1006.66 1005.65 1005.06 1004.84 1004.91 1005.13 1005.35 1005.43 1005.26 1004.81 1004.10 1003.25 1002.40 1001.71
1026.65 1026.18 1025.56 1024.91 1024.37 1024.00 1023.86 1023.92 1024.13 1024.37 1024.54 1024.55 1024.36 1023.96 1023.38 1022.67 1021.92 1021.17 1020.45 1019.75 1018.99 1018.10 1017.00 1015.62 1013.94 1012.00 1009.90 1007.79 1005.83 1004.17 1002.96 1002.25 1002.00 1002.13 1002.50 1002.91 1003.22 1003.30 1003.06 1002.54 1001.83 1001.07 1000.44
1025.78 1025.37 1024.82 1024.26 1023.80 1023.50 1023.40 1023.47 1023.65 1023.84 1023.94 1023.90 1023.65 1023.22 1022.63 1021.95 1021.25 1020.57 1019.92 1019.26 1018.52 1017.61 1016.44 1014.91 1013.03 1010.85 1008.48 1006.08 1003.84 1001.93 1000.52 999.66 999.34 999.48 999.91 1000.45 1000.92 1001.17 1001.13 1000.79 1000.24 999.63 999.11
1024.80 1024.45 1024.02 1023.59 1023.26 1023.07 1023.04 1023.14 1023.31 1023.46 1023.50 1023.37 1023.06 1022.57 1021.95 1021.27 1020.58 1019.94 1019.33 1018.71 1017.98 1017.06 1015.84 1014.22 1012.22 1009.88 1007.32 1004.72 1002.27 1000.17 998.58 997.57 997.15 997.22 997.62 998.19 998.73 999.08 999.17 998.98 998.59 998.12 997.75
1023.77 1023.52 1023.21 1022.93 1022.75 1022.69 1022.76 1022.91 1023.09 1023.21 1023.19 1022.99 1022.60 1022.05 1021.38 1020.67 1019.98 1019.34 1018.75 1018.14 1017.43 1016.50 1015.26 1013.62 1011.57 1009.16 1006.53 1003.83 1001.28 999.06 997.33 996.19 995.63 995.57 995.87 996.36 996.85 997.21 997.34 997.23 996.96 996.64 996.42
1022.79 1022.63 1022.45 1022.32 1022.28 1022.35 1022.53 1022.75 1022.95 1023.05 1023.00 1022.74 1022.29 1021.67 1020.96 1020.20 1019.49 1018.83 1018.22 1017.61 1016.90 1015.98 1014.76 1013.15 1011.13 1008.77 1006.17 1003.49 1000.93 998.67 996.87 995.61 994.89 994.66 994.77 995.09 995.44 995.69 995.77 995.67 995.46 995.24 995.15
1021.96 1021.87 1021.79 1021.78 1021.86 1022.05 1022.31 1022.60 1022.83 1022.94 1022.86 1022.58 1022.08 1021.43 1020.67 1019.88 1019.13 1018.44 1017.80 1017.17 1016.46 1015.56 1014.38 1012.84 1010.93 1008.69 1006.22 1003.67 1001.20 998.98 997.16 995.81 994.94 994.50 994.38 994.44 994.56 994.62 994.56 994.39 994.16 993.99 993.98
1021.34 1021.29 1021.27 1021.34 1021.51 1021.77 1022.09 1022.43 1022.69 1022.81 1022.74 1022.44 1021.94 1021.28 1020.50 1019.69 1018.91 1018.18 1017.51 1016.85 1016.13 1015.26 1014.14 1012.71 1010.95 1008.89 1006.63 1004.27 1001.97 999.86 998.07 996.67 995.66 995.01 994.62 994.40 994.22 994.03 993.76 993.45 993.15 992.95 992.97
1020.94 1020.90 1020.91 1021.00 1021.19 1021.49 1021.84 1022.19 1022.47 1022.61 1022.56 1022.29 1021.81 1021.17 1020.41 1019.60 1018.81 1018.06 1017.36 1016.68 1015.95 1015.10 1014.05 1012.73 1011.15 1009.31 1007.28 1005.17 1003.08 1001.14 999.43 998.01 996.90 996.06 995.41 994.89 994.41 993.93 993.42 992.92 992.48 992.21 992.20
1020.74 1020.68 1020.66 1020.73 1020.91 1021.18 1021.52 1021.87 1022.15 1022.30 1022.28 1022.06 1021.64 1021.05 1020.34 1019.58 1018.80 1018.05 1017.34 1016.63 1015.90 1015.07 1014.08 1012.89 1011.48 1009.86 1008.08 1006.23 1004.38 1002.62 1001.03 999.64 998.46 997.46 996.60 995.81 995.05 994.30 993.55 992.85 992.26 991.87 991.76
1020.66 1020.56 1020.49 1020.51 1020.63 1020.85 1021.14 1021.46 1021.72 1021.89 1021.90 1021.74 1021.39 1020.89 1020.26 1019.56 1018.84 1018.11 1017.41 1016.70 1015.97 1015.16 1014.23 1013.14 1011.89 1010.47 1008.94 1007.33 1005.71 1004.15 1002.70 1001.37 1000.17 999.08 998.07 997.08 996.10 995.12 994.17 993.28 992.53 992.01 991.77
1020.62 1020.47 1020.34 1020.29 1020.34 1020.49 1020.72 1020.98 1021.22 1021.38 1021.43 1021.32 1021.06 1020.66 1020.14 1019.53 1018.88 1018.21 1017.54 1016.85 1016.13 1015.35 1014.48 1013.49 1012.36 1011.12 1009.79 1008.41 1007.01 1005.65 1004.34 1003.11 1001.94 1000.83 999.73 998.63 997.51 996.39 995.28 994.26 993.37 992.71 992.32
1020.55 1020.36 1020.18 1020.07 1020.05 1020.12 1020.27 1020.47 1020.67 1020.82 1020.89 1020.84 1020.66 1020.36 1019.95 1019.46 1018.91 1018.32 1017.70 1017.06 1016.37 1015.63 1014.81 1013.89 1012.89 1011.79 1010.63 1009.44 1008.24 1007.05 1005.90 1004.79 1003.71 1002.63 1001.53 1000.40 999.24 998.06 996.88 995.77 994.79 994.00 993.47
1020.43 1020.21 1020.00 1019.85 1019.77 1019.78 1019.86 1020.00 1020.15 1020.28 1020.35 1020.34 1020.23 1020.02 1019.72 1019.34 1018.90 1018.41 1017.87 1017.29 1016.66 1015.96 1015.20 1014.36 1013.45 1012.47 1011.46 1010.42 1009.39 1008.37 1007.38 1006.40 1005.43 1004.45 1003.43 1002.35 1001.23 1000.07 998.90 997.78 996.75 995.87 995.21
1020.24 1020.03 1019.83 1019.66 1019.55 1019.51 1019.54 1019.62 1019.72 1019.81 1019.87 1019.88 1019.81 1019.68 1019.47 1019.19 1018.85 1018.46 1018.01 1017.51 1016.95 1016.32 1015.63 1014.86 1014.03 1013.16 1012.27 1011.36 1010.47 1009.60 1008.76 1007.93 1007.10 1006.25 1005.36 1004.41 1003.39 1002.33 1001.24 1000.16 999.13 998.22 997.45
1020.04 1019.86 1019.68 1019.53 1019.42 1019.36 1019.35 1019.37 1019.42 1019.47 1019.50 1019.49 1019.45 1019.35 1019.21 1019.01 1018.77 1018.47 1018.12 1017.70 1017.22 1016.67 1016.05 1015.36 1014.62 1013.84 1013.05 1012.26 1011.49 1010.75 1010.05 1009.36 1008.68 1007.99 1007.25 1006.46 1005.61 1004.69 1003.73 1002.75 1001.78 1000.87 1000.04
1019.87 1019.74 1019.61 1019.49 1019.40 1019.33 1019.30 1019.28 1019.27 1019.27 1019.25 1019.22 1019.16 1019.08 1018.97 1018.83 1018.65 1018.44 1018.17 1017.84 1017.44 1016.98 1016.44 1015.83 1015.17 1014.48 1013.78 1013.09 1012.43 1011.80 1011.22 1010.67 1010.13 1009.59 1009.03 1008.41 1007.73 1006.99 1006.19 1005.34 1004.47 1003.60 1002.78
Thickness
5511 5509 5508 5508 5510 5512 5514 5516 5518 5521 5523 5527 5531 5536 5540 5541 5543 5545 5546 5547 5548 5550 5551 5553 5556 5557 5560 5562 5564 5567 5569 5571 5573 5576 5581 5586 5591 5595 5599 5602 5606 5609 5612
5502 5499 5499 5499 5500 5501 5503 5505 5507 5509 5511 5513 5516 5522 5525 5528 5531 5532 5534 5536 5537 5538 5539 5541 5544 5546 5548 5551 5552 5555 5558 5560 5562 5565 5570 5576 5583 5586 5590 5593 5596 5600 5604
5493 5491 5490 5490 5490 5491 5492 5493 5495 5497 5499 5500 5504 5508 5511 5515 5519 5521 5523 5525 5525 5526 5527 5529 5532 5534 5537 5539 5540 5542 5546 5549 5551 5554 5558 5564 5572 5576 5581 5584 5587 5590 5594
5484 5482 5481 5481 5481 5481 5481 5482 5483 5484 5486 5488 5492 5495 5500 5505 5507 5509 5511 5513 5514 5514 5516 5518 5519 5522 5525 5527 5529 5530 5533 5537 5540 5542 5546 5552 5558 5561 5569 5574 5578 5581 5584
5475 5473 5472 5472 5471 5471 5471 5471 5472 5473 5474 5476 5479 5482 5487 5490 5493 5496 5499 5501 5502 5503 5504 5505 5507 5510 5513 5515 5517 5519 5521 5525 5529 5531 5534 5538 5543 5549 5554 5563 5568 5570 5574
5465 5464 5462 5462 5462 5461 5461 5461 5462 5462 5463 5465 5467 5470 5473 5477 5481 5484 5487 5489 5491 5492 5493 5494 5496 5499 5501 5504 5506 5508 5510 5513 5517 5520 5523 5527 5531 5536 5542 5550 5556 5560 5565
5455 5454 5454 5454 5453 5452 5452 5452 5453 5453 5453 5454 5456 5458 5461 5464 5468 5471 5474 5476 5479 5481 5482 5483 5485 5488 5490 5492 5494 5496 5500 5502 5505 5509 5513 5516 5520 5524 5529 5535 5542 5548 5554
5445 5444 5443 5442 5442 5442 5442 5442 5443 5443 5444 5444 5446 5447 5448 5451 5455 5458 5460 5463 5466 5469 5470 5472 5474 5477 5479 5481 5483 5486 5489 5492 5495 5498 5501 5505 5508 5512 5517 5522 5527 5534 5543
5435 5434 5433 5431 5431 5431 5431 5431 5431 5432 5433 5434 5435 5436 5438 5439 5442 5445 5448 5450 5453 5456 5458 5461 5464 5466 5468 5470 5472 5476 5479 5481 5484 5487 5490 5494 5498 5501 5506 5510 5515 5521 5530
5424 5423 5422 5422 5421 5420 5420 5420 5421 5422 5422 5423 5425 5426 5427 5428 5431 5433 5436 5438 5441 5443 5446 5449 5452 5455 5457 5460 5462 5465 5468 5470 5474 5477 5480 5484 5488 5491 5494 5499 5504 5510 5517
5412 5411 5411 5411 5411 5410 5410 5410 5410 5410 5412 5413 5414 5414 5416 5418 5420 5422 5425 5427 5430 5433 5435 5437 5440 5443 5446 5449 5452 5455 5458 5460 5464 5467 5470 5474 5477 5481 5484 5488 5493 5498 5505
5400 5399 5399 5399 5400 5399 5399 5399 5400 5400 5401 5401 5402 5404 5406 5408 5410 5412 5415 5417 5419 5421 5424 5425 5428 5431 5434 5438 5441 5444 5448 5451 5454 5457 5460 5463 5466 5470 5474 5478 5483 5488 5495
5390 5389 5388 5388 5388 5388 5388 5388 5388 5389 5389 5389 5391 5394 5396 5398 5399 5401 5404 5406 5408 5410 5412 5414 5417 5420 5423 5426 5430 5434 5438 5441 5444 5447 5450 5454 5456 5460 5464 5468 5473 5478 5484
5379 5378 5378 5377 5376 5376 5375 5375 5376 5376 5377 5378 5380 5383 5385 5387 5388 5390 5393 5394 5396 5398 5400 5403 5405 5408 5412 5415 5419 5423 5427 5431 5434 5437 5440 5443 5447 5451 5455 5458 5463 5468 5473
5370 5368 5366 5366 5365 5364 5363 5363 5364 5365 5365 5367 5369 5373 5375 5376 5377 5379 5382 5383 5385 5387 5389 5391 5394 5398 5401 5405 5409 5413 5417 5421 5425 5428 5431 5435 5438 5441 5444 5448 5453 5458 5462
5361 5358 5355 5354 5353 5352 5351 5351 5352 5353 5354 5356 5359 5362 5363 5365 5367 5368 5370 5372 5374 5376 5378 5381 5384 5387 5392 5396 5398 5401 5407 5411 5415 5419 5422 5425 5428 5432 5433 5438 5442 5447 5452
5351 5347 5344 5342 5340 5339 5339 5340 5340 5341 5342 5345 5347 5350 5352 5354 5356 5357 5359 5361 5363 5365 5368 5370 5373 5377 5382 5385 5388 5391 5395 5400 5404 5408 5412 5415 5419 5421 5424 5428 5431 5436 5440
5339 5336 5333 5331 5330 5328 5327 5327 5328 5330 5331 5334 5337 5339 5341 5343 5345 5346 5348 5350 5352 5355 5357 5359 5362 5366 5371 5373 5376 5379 5383 5389 5394 5398 5401 5405 5409 5412 5414 5419 5423 5427 5431
5325 5323 5321 5319 5318 5317 5316 5317 5318 5319 5321 5324 5326 5328 5330 5332 5334 5336 5337 5339 5341 5344 5346 5348 5351 5355 5360 5362 5364 5367 5372 5377 5382 5387 5391 5394 5398 5402 5403 5407 5413 5418 5422
5313 5311 5309 5308 5307 5306 5305 5306 5308 5309 5311 5313 5314 5316 5318 5320 5322 5324 5326 5327 5330 5332 5335 5338 5341 5344 5348 5351 5353 5355 5361 5366 5371 5376 5379 5382 5386 5388 5390 5395 5402 5407 5412
5303 5300 5298 5297 5297 5295 5294 5295 5297 5298 5299 5300 5302 5304 5306 5308 5310 5313 5315 5316 5318 5321 5324 5327 5329 5332 5336 5339 5341 5344 5348 5354 5358 5363 5367 5370 5372 5375 5379 5384 5390 5396 5399
5293 5290 5289 5288 5286 5284 5284 5285 5286 5287 5288 5290 5292 5294 5296 5298 5300 5302 5304 5305 5307 5309 5312 5315 5318 5320 5323 5326 5329 5332 5335 5340 5345 5350 5354 5357 5359 5362 5367 5372 5377 5380 5384
5283 5280 5279 5278 5277 5275 5273 5274 5276 5276 5277 5279 5282 5284 5285 5287 5288 5290 5292 5294 5295 5298 5301 5303 5306 5309 5312 5315 5316 5319 5323 5326 5330 5335 5339 5341 5345 5349 5353 5358 5362 5366 5370
5274 5271 5269 5268 5267 5265 5264 5264 5264 5265 5266 5269 5272 5273 5275 5277 5278 5279 5280 5282 5284 5287 5289 5292 5295 5298 5300 5302 5304 5306 5309 5313 5316 5320 5323 5326 5330 5334 5338 5343 5347 5352 5356
5265 5262 5260 5259 5258 5256 5256 5255 5255 5255 5257 5259 5261 5263 5265 5266 5267 5268 5269 5271 5274 5275 5279 5282 5284 5286 5288 5289 5291 5292 5296 5299 5303 5306 5309 5312 5316 5320 5324 5328 5332 5336 5341
5258 5255 5253 5251 5249 5248 5247 5247 5247 5246 5247 5250 5252 5254 5255 5256 5257 5258 5260 5262 5263 5266 5269 5270 5272 5274 5276 5277 5278 5280 5283 5286 5289 5292 5296 5300 5303 5306 5310 5314 5317 5321 5326